Location: St. Louis
(38.6270°N, 90.1994°W)
Time: 12:07:44
(UTC-06:00)

Altair - Pass Details

Date: 30 November 2021
Orbit: 1501 x 1683 km, 47.2° (Epoch: 25 January)

Event Time Altitude Azimuth Distance (km) Brightness Sun altitude
Rises 14:45:34 0° 206° (SSW) 4,804 11.6 16.9°
Reaches altitude 10° 14:48:57 10° 199° (SSW) 3,795 11.0 16.4°
Maximum altitude 14:57:38 40° 134° (SE) 2,139 8.5 15.3°
Drops below altitude 10° 15:06:04 10° 68° (ENE) 3,688 9.0 14.1°
Sets 15:09:17 0° 62° (ENE) 4,657 9.4 13.6°
